This is the latest recevied weather packets stored in our database for station/object SQ2LXT-10. If no packets are shown the sender has not sent any weather packets the latest 10 day(s).
| Time | Temp. | Humidity | Pressure | Rain* | Wind** | Luminosity | Snow |
|---|---|---|---|---|---|---|---|
| 1777779930 | 8.89° C | 100% | 1011.3 hPa | - | - | - | - |
| 1777779030 | 7.78° C | 100% | 1011.2 hPa | - | - | - | - |
| 1777778136 | 7.78° C | 100% | 1011.2 hPa | - | - | - | - |
| 1777777229 | 8.33° C | 100% | 1011.2 hPa | - | - | - | - |
| 1777776329 | 8.33° C | 100% | 1011.3 hPa | - | - | - | - |
| 1777775429 | 8.89° C | 100% | 1011.3 hPa | - | - | - | - |
| 1777774529 | 8.89° C | 100% | 1011.3 hPa | - | - | - | - |
| 1777773629 | 8.33° C | 100% | 1011.3 hPa | - | - | - | - |
| 1777772729 | 8.89° C | 100% | 1011.5 hPa | - | - | - | - |
| 1777771829 | 9.44° C | 100% | 1011.6 hPa | - | - | - | - |
| 1777770929 | 10° C | 100% | 1011.6 hPa | - | - | - | - |
| 1777770029 | 10° C | 100% | 1011.4 hPa | - | - | - | - |
| 1777769129 | 10° C | 100% | 1011.7 hPa | - | - | - | - |
| 1777768229 | 10° C | 100% | 1011.8 hPa | - | - | - | - |
| 1777767329 | 10° C | 100% | 1011.7 hPa | - | - | - | - |
| 1777766429 | 10.56° C | 97% | 1011.9 hPa | - | - | - | - |
| 1777765529 | 10.56° C | 95% | 1011.8 hPa | - | - | - | - |
| 1777764628 | 10.56° C | 95% | 1011.9 hPa | - | - | - | - |
| 1777763728 | 10.56° C | 97% | 1012.1 hPa | - | - | - | - |
| 1777762828 | 11.11° C | 96% | 1012.1 hPa | - | - | - | - |
| 1777761929 | 11.11° C | 94% | 1012.1 hPa | - | - | - | - |
| 1777761028 | 11.11° C | 96% | 1012.3 hPa | - | - | - | - |
| 1777760128 | 11.11° C | 97% | 1012.4 hPa | - | - | - | - |
| 1777759228 | 11.11° C | 94% | 1012.4 hPa | - | - | - | - |
| 1777758328 | 11.67° C | 94% | 1012.5 hPa | - | - | - | - |
* Rain since midnight (hover to see other rain measurements)
** Current wind speed in m/s (hover to see current wind gust speed)